{"data":{"norad_id":57637,"epoch":"2026-05-25T00:20:29.643072Z","epoch_age_seconds":84103,"freshness":"FRESH","line1":"1 57637U 23122F   26145.01423198  .00001919  00000+0  79253-4 0  9993","line2":"2 57637  43.0027  21.1348 0001314 273.2845  86.7856 15.27576433153883","mean_motion":15.27576433,"eccentricity":0.0001314,"inclination_deg":43.0027,"raan_deg":21.1348,"arg_perigee_deg":273.2845,"mean_anomaly_deg":86.7856,"bstar":7.9253e-5,"rev_number":15388,"period_min":94.266968833238,"perigee_km":482.15821568517,"apogee_km":483.96133819815,"semimajor_km":6861.1967769417,"source":"CELESTRAK","updated_at":"2026-05-25T13:38:18.363100Z"}}